Regional Weather Roundup
Issued by NWS

Home | Current Version | Previous Version | Graphics & Text | Print | Product List | Glossary On
Versions: 1 2 3 4 5 6 7 8 9 10 11 12 13 14 15 16 17 18 19 20 21 22 23 24 25 26 27 28 29 30 31 32 33 34 35 36 37 38 39 40 41 42 43 44 45 46 47 48 49 50
000
ASUS43 KOAX 251802
RWRNE

WEATHER ROUNDUP FOR NEBRASKA
NATIONAL WEATHER SERVICE OMAHA NE
1200 PM CST SUN JAN 25 2015

NOTES: SATELLITE DATA IS BEING USED TO AUGMENT CLOUD COVER ABOVE
       12000 FEET.
       "FAIR" INDICATES FEW OR NO CLOUDS BELOW 12,000 FEET WITH NO
       SIGNIFICANT WEATHER AND/OR OBSTRUCTIONS TO VISIBILITY.

  * THESE STATIONS DO NOT REPORT WEATHER SUCH AS RAIN...SNOW OR FOG.

NEZ001>004-019>022-054>056-251900-
NEBRASKA PANHANDLE

CITY           SKY/WX    TMP DP  RH WIND       PRES   REMARKS
SCOTTSBLUFF    CLOUDY    43  33  68 W16       30.11F
6HR MIN TEMP:  30; 6HR MAX TEMP:  43;

ALLIANCE       MOSUNNY   43  31  62 W20       30.08F
6HR MIN TEMP:  29; 6HR MAX TEMP:  43;

CHADRON        MOSUNNY   45  29  53 W18       30.07F
6HR MIN TEMP:  33; 6HR MAX TEMP:  46;

SIDNEY         CLOUDY    47  31  53 NW16G23   30.13F
6HR MIN TEMP:  31; 6HR MAX TEMP:  47;

$$

NEZ057>060-069>072-079>082-251900-
SOUTHWEST NEBRASKA

CITY           SKY/WX    TMP DP  RH WIND       PRES   REMARKS
NORTH PLATTE   SUNNY     46  26  45 NW23      30.09S
6HR MIN TEMP:  25; 6HR MAX TEMP:  46;

IMPERIAL       SUNNY     49  26  41 N22       30.10F
6HR MIN TEMP:  32; 6HR MAX TEMP:  49;

MCCOOK         SUNNY     49  23  36 NW30G40   30.10R
6HR MIN TEMP:  36; 6HR MAX TEMP:  49;

$$

NEZ005>010-023>029-035>040-094-251900-
NORTH CENTRAL NEBRASKA

CITY           SKY/WX    TMP DP  RH WIND       PRES   REMARKS
VALENTINE      CLOUDY    37  28  70 NW16G24   30.07S WCI  28
6HR MIN TEMP:  33; 6HR MAX TEMP:  37;

BROKEN BOW     PTSUNNY   44  30  57 N21       30.05R
6HR MIN TEMP:  36; 6HR MAX TEMP:  44;

ORD            CLOUDY    39  30  70 N16       30.05R WCI  30
6HR MIN TEMP:  36; 6HR MAX TEMP:  40;

$$

NEZ041-046>049-061>064-073>077-083>087-251900-
SOUTH CENTRAL NEBRASKA

CITY           SKY/WX    TMP DP  RH WIND       PRES   REMARKS
GRAND ISLAND   CLOUDY    40  31  70 N21       30.04R WCI  30
6HR MIN TEMP:  38; 6HR MAX TEMP:  41;

HASTINGS       CLOUDY    42  28  57 N26G35    30.03R
6HR MIN TEMP:  38; 6HR MAX TEMP:  43;

KEARNEY *      CLOUDY    43  27  52 N22G30    30.05S
$$

NEZ011>018-030>034-042>045-251900-
NORTHEAST NEBRASKA

CITY           SKY/WX    TMP DP  RH WIND       PRES   REMARKS
NORFOLK        CLOUDY    35  32  88 N12       30.02R WCI  27
6HR MIN TEMP:  33; 6HR MAX TEMP:  35;

COLUMBUS *     PTSUNNY   37  28  70 N20       30.02S WCI  27
TEKAMAH        CLOUDY    39  34  82 N22       29.99R WCI  29
6HR MIN TEMP:  36; 6HR MAX TEMP:  39; 6HR PCP: TRACE;

$$

NEZ050>053-065>068-078-088>093-251900-
SOUTHEAST NEBRASKA

CITY           SKY/WX    TMP DP  RH WIND       PRES   REMARKS
LINCOLN        CLOUDY    39  31  72 N22       30.00R WCI  29
6HR MIN TEMP:  36; 6HR MAX TEMP:  40;

OMAHA EPPLEY   CLOUDY    39  33  79 N20G26    29.96R WCI  29
6HR MIN TEMP:  36; 6HR MAX TEMP:  39; 6HR PCP: TRACE;

FALLS CITY     CLOUDY    37  32  82 N22G30    29.91R WCI  26
6HR MIN TEMP:  36; 6HR MAX TEMP:  37; 6HR PCP: TRACE;

$$

NEZ044-045-051>053-067-251900-
OMAHA AREA

CITY           SKY/WX    TMP DP  RH WIND       PRES   REMARKS
OMAHA EPPLEY   CLOUDY    39  33  79 N20G26    29.96R WCI  29
6HR MIN TEMP:  36; 6HR MAX TEMP:  39; 6HR PCP: TRACE;

OFFUTT AFB     CLOUDY    38  32  78 N8G20     29.95R WCI  32
$$



USA.gov is the U.S. government's official web portal to all federal, state and local government web resources and services.